Time,TemperatureF,DewpointF,PressureIn,WindDirection,WindDirectionDegrees,WindSpeedMPH,WindSpeedGustMPH,Humidity,HourlyPrecipIn,Conditions,Clouds,dailyrainin,SoftwareType,DateUTC
2013-02-17 00:00:00,23.4,13.4,30.16,SW,229,3.0,3.0,65,0.00,,,0.00,Wunderground v.1.15,2013-02-17 05:00:00,
2013-02-17 00:01:00,23.4,13.4,30.16,SW,229,1.0,3.0,65,0.00,,,0.00,Wunderground v.1.15,2013-02-17 05:01:00,
2013-02-17 00:02:00,23.4,13.0,30.16,SW,232,0.0,3.0,64,0.00,,,0.00,Wunderground v.1.15,2013-02-17 05:02:00,
2013-02-17 00:05:00,23.3,13.3,30.16,SW,232,0.0,3.0,65,0.00,,,0.00,Wunderground v.1.15,2013-02-17 05:05:00,
2013-02-17 00:10:00,23.3,13.3,30.16,SW,225,1.0,1.0,65,0.00,,,0.00,Wunderground v.1.15,2013-02-17 05:10:00,
2013-02-17 00:15:00,23.2,12.8,30.17,West,278,2.0,3.0,64,0.00,,,0.00,Wunderground v.1.15,2013-02-17 05:15:00,
2013-02-17 00:20:00,23.2,13.2,30.16,WSW,247,2.0,2.0,65,0.00,,,0.00,Wunderground v.1.15,2013-02-17 05:20:00,
2013-02-17 00:25:00,23.1,13.1,30.16,WSW,249,1.0,2.0,65,0.00,,,0.00,Wunderground v.1.15,2013-02-17 05:25:00,
2013-02-17 00:30:00,23.0,13.0,30.17,WSW,249,0.0,1.0,65,0.00,,,0.00,Wunderground v.1.15,2013-02-17 05:30:00,
2013-02-17 00:35:00,22.9,12.2,30.17,West,274,2.0,5.0,63,0.00,,,0.00,Wunderground v.1.15,2013-02-17 05:35:00,
2013-02-17 00:41:00,22.9,11.8,30.17,West,260,0.0,2.0,62,0.00,,,0.00,Wunderground v.1.15,2013-02-17 05:41:00,
2013-02-17 00:46:00,22.9,12.2,30.17,WNW,299,1.0,2.0,63,0.00,,,0.00,Wunderground v.1.15,2013-02-17 05:46:00,
2013-02-17 00:51:00,22.8,13.5,30.17,WSW,247,1.0,1.0,67,0.00,,,0.00,Wunderground v.1.15,2013-02-17 05:51:00,
2013-02-17 00:57:00,22.8,12.1,30.18,West,262,1.0,1.0,63,0.00,,,0.00,Wunderground v.1.15,2013-02-17 05:57:00,
2013-02-17 01:02:00,22.7,12.3,30.18,WSW,240,0.0,1.0,64,0.00,,,0.00,Wunderground v.1.15,2013-02-17 06:02:00,
2013-02-17 01:07:00,22.6,11.9,30.18,WSW,246,0.0,2.0,63,0.00,,,0.00,Wunderground v.1.15,2013-02-17 06:07:00,
2013-02-17 01:12:00,22.5,11.8,30.18,WNW,292,0.0,1.0,63,0.00,,,0.00,Wunderground v.1.15,2013-02-17 06:12:00,
2013-02-17 01:17:00,22.5,12.1,30.18,NNW,338,0.0,1.0,64,0.00,,,0.00,Wunderground v.1.15,2013-02-17 06:17:00,
2013-02-17 01:23:00,22.4,11.3,30.18,WNW,287,0.0,3.0,62,0.00,,,0.00,Wunderground v.1.15,2013-02-17 06:23:00,
2013-02-17 01:28:00,22.4,11.3,30.18,West,280,0.0,3.0,62,0.00,,,0.00,Wunderground v.1.15,2013-02-17 06:28:00,
2013-02-17 01:33:00,22.3,11.2,30.18,SW,223,0.0,1.0,62,0.00,,,0.00,Wunderground v.1.15,2013-02-17 06:33:00,
2013-02-17 01:38:00,22.2,11.5,30.18,NNW,336,0.0,2.0,63,0.00,,,0.00,Wunderground v.1.15,2013-02-17 06:38:00,
2013-02-17 01:43:00,22.1,11.1,30.18,WSW,253,3.0,3.0,62,0.00,,,0.00,Wunderground v.1.15,2013-02-17 06:43:00,
2013-02-17 01:48:00,22.0,10.6,30.18,North,9,6.0,6.0,61,0.00,,,0.00,Wunderground v.1.15,2013-02-17 06:48:00,
2013-02-17 01:53:00,22.0,10.6,30.18,North,360,0.0,3.0,61,0.00,,,0.00,Wunderground v.1.15,2013-02-17 06:53:00,
2013-02-17 01:58:00,21.9,10.5,30.18,SSW,192,3.0,3.0,61,0.00,,,0.00,Wunderground v.1.15,2013-02-17 06:58:00,
2013-02-17 02:03:00,21.9,10.5,30.18,SSW,209,1.0,2.0,61,0.00,,,0.00,Wunderground v.1.15,2013-02-17 07:03:00,
2013-02-17 02:08:00,21.9,10.9,30.19,SW,233,1.0,2.0,62,0.00,,,0.00,Wunderground v.1.15,2013-02-17 07:08:00,
2013-02-17 02:13:00,21.8,10.8,30.19,South,174,0.0,4.0,62,0.00,,,0.00,Wunderground v.1.15,2013-02-17 07:13:00,
2013-02-17 02:18:00,21.8,10.8,30.19,WSW,257,0.0,4.0,62,0.00,,,0.00,Wunderground v.1.15,2013-02-17 07:18:00,
2013-02-17 02:23:00,21.8,10.8,30.19,West,262,2.0,9.0,62,0.00,,,0.00,Wunderground v.1.15,2013-02-17 07:23:00,
2013-02-17 02:28:00,21.8,10.8,30.18,WSW,241,2.0,9.0,62,0.00,,,0.00,Wunderground v.1.15,2013-02-17 07:28:00,
2013-02-17 02:33:00,21.8,11.1,30.18,West,270,0.0,5.0,63,0.00,,,0.00,Wunderground v.1.15,2013-02-17 07:33:00,
2013-02-17 02:38:00,21.8,11.1,30.18,NW,310,1.0,5.0,63,0.00,,,0.00,Wunderground v.1.15,2013-02-17 07:38:00,
2013-02-17 02:44:00,21.8,11.1,30.19,NW,318,0.0,6.0,63,0.00,,,0.00,Wunderground v.1.15,2013-02-17 07:44:00,
2013-02-17 02:49:00,21.8,11.5,30.18,WNW,294,1.0,6.0,64,0.00,,,0.00,Wunderground v.1.15,2013-02-17 07:49:00,
2013-02-17 02:54:00,21.7,11.4,30.18,NW,308,0.0,5.0,64,0.00,,,0.00,Wunderground v.1.15,2013-02-17 07:54:00,
2013-02-17 02:59:00,21.7,11.0,30.18,North,355,3.0,5.0,63,0.00,,,0.00,Wunderground v.1.15,2013-02-17 07:59:00,
2013-02-17 03:04:00,21.7,11.4,30.19,West,270,0.0,4.0,64,0.00,,,0.00,Wunderground v.1.15,2013-02-17 08:04:00,
2013-02-17 03:09:00,21.6,10.9,30.19,WNW,301,0.0,7.0,63,0.00,,,0.00,Wunderground v.1.15,2013-02-17 08:09:00,
2013-02-17 03:14:00,21.5,10.8,30.18,South,185,1.0,5.0,63,0.00,,,0.00,Wunderground v.1.15,2013-02-17 08:14:00,
2013-02-17 03:19:00,21.5,10.8,30.18,WSW,239,0.0,12.0,63,0.00,,,0.00,Wunderground v.1.15,2013-02-17 08:19:00,
2013-02-17 03:24:00,21.5,10.8,30.19,WSW,252,2.0,5.0,63,0.00,,,0.00,Wunderground v.1.15,2013-02-17 08:24:00,
2013-02-17 03:29:00,21.4,10.7,30.18,WSW,249,1.0,5.0,63,0.00,,,0.00,Wunderground v.1.15,2013-02-17 08:29:00,
2013-02-17 03:34:00,21.3,10.7,30.19,North,355,3.0,10.0,63,0.00,,,0.00,Wunderground v.1.15,2013-02-17 08:34:00,
2013-02-17 03:39:00,21.3,11.0,30.19,NW,325,2.0,10.0,64,0.00,,,0.00,Wunderground v.1.15,2013-02-17 08:39:00,
2013-02-17 03:44:00,21.2,11.3,30.19,NW,324,0.0,6.0,65,0.00,,,0.00,Wunderground v.1.15,2013-02-17 08:44:00,
2013-02-17 03:49:00,21.1,11.2,30.19,WSW,242,1.0,1.0,65,0.00,,,0.00,Wunderground v.1.15,2013-02-17 08:49:00,
2013-02-17 03:54:00,21.1,11.2,30.19,WSW,242,2.0,6.0,65,0.00,,,0.00,Wunderground v.1.15,2013-02-17 08:54:00,
2013-02-17 03:59:00,21.0,10.7,30.19,WNW,298,2.0,2.0,64,0.00,,,0.00,Wunderground v.1.15,2013-02-17 08:59:00,
2013-02-17 04:04:00,21.0,10.7,30.19,West,280,0.0,5.0,64,0.00,,,0.00,Wunderground v.1.15,2013-02-17 09:04:00,
2013-02-17 04:09:00,21.0,11.1,30.19,West,267,1.0,2.0,65,0.00,,,0.00,Wunderground v.1.15,2013-02-17 09:09:00,
2013-02-17 04:14:00,21.0,11.1,30.19,West,261,2.0,7.0,65,0.00,,,0.00,Wunderground v.1.15,2013-02-17 09:14:00,
2013-02-17 04:19:00,20.9,11.3,30.19,WSW,244,1.0,2.0,66,0.00,,,0.00,Wunderground v.1.15,2013-02-17 09:19:00,
2013-02-17 04:24:00,20.9,11.0,30.19,NNW,327,0.0,4.0,65,0.00,,,0.00,Wunderground v.1.15,2013-02-17 09:24:00,
2013-02-17 04:29:00,20.9,11.0,30.19,WSW,253,3.0,5.0,65,0.00,,,0.00,Wunderground v.1.15,2013-02-17 09:29:00,
2013-02-17 04:34:00,20.9,11.0,30.20,WSW,250,0.0,7.0,65,0.00,,,0.00,Wunderground v.1.15,2013-02-17 09:34:00,
2013-02-17 04:40:00,20.9,11.7,30.20,SSW,202,1.0,1.0,67,0.00,,,0.00,Wunderground v.1.15,2013-02-17 09:40:00,
2013-02-17 04:45:00,20.8,11.6,30.20,NNW,344,1.0,6.0,67,0.00,,,0.00,Wunderground v.1.15,2013-02-17 09:45:00,
2013-02-17 04:50:00,20.8,10.9,30.20,NNW,333,0.0,3.0,65,0.00,,,0.00,Wunderground v.1.15,2013-02-17 09:50:00,
2013-02-17 04:55:00,20.9,11.0,30.20,West,275,1.0,4.0,65,0.00,,,0.00,Wunderground v.1.15,2013-02-17 09:55:00,
2013-02-17 05:00:00,20.9,11.0,30.20,NW,306,2.0,2.0,65,0.00,,,0.00,Wunderground v.1.15,2013-02-17 10:00:00,
2013-02-17 05:05:00,20.8,10.9,30.20,NW,304,0.0,5.0,65,0.00,,,0.00,Wunderground v.1.15,2013-02-17 10:05:00,
2013-02-17 05:10:00,20.8,10.5,30.20,West,263,0.0,2.0,64,0.00,,,0.00,Wunderground v.1.15,2013-02-17 10:10:00,
2013-02-17 05:15:00,20.8,10.2,30.20,WNW,292,1.0,9.0,63,0.00,,,0.00,Wunderground v.1.15,2013-02-17 10:15:00,
2013-02-17 05:20:00,20.8,10.2,30.20,West,273,1.0,2.0,63,0.00,,,0.00,Wunderground v.1.15,2013-02-17 10:20:00,
2013-02-17 05:25:00,20.8,10.5,30.20,SW,214,0.0,5.0,64,0.00,,,0.00,Wunderground v.1.15,2013-02-17 10:25:00,
2013-02-17 05:30:00,20.7,10.4,30.20,WNW,284,0.0,1.0,64,0.00,,,0.00,Wunderground v.1.15,2013-02-17 10:30:00,
2013-02-17 05:35:00,20.7,10.4,30.21,NNW,333,2.0,4.0,64,0.00,,,0.00,Wunderground v.1.15,2013-02-17 10:35:00,
2013-02-17 05:40:00,20.7,10.4,30.21,WSW,244,3.0,5.0,64,0.00,,,0.00,Wunderground v.1.15,2013-02-17 10:40:00,
2013-02-17 05:45:00,20.7,10.8,30.21,North,355,0.0,6.0,65,0.00,,,0.00,Wunderground v.1.15,2013-02-17 10:45:00,
2013-02-17 05:50:00,20.7,10.8,30.22,WSW,251,0.0,1.0,65,0.00,,,0.00,Wunderground v.1.15,2013-02-17 10:50:00,
2013-02-17 05:55:00,20.6,10.7,30.22,WSW,246,0.0,2.0,65,0.00,,,0.00,Wunderground v.1.15,2013-02-17 10:55:00,
2013-02-17 06:00:00,20.7,10.4,30.23,West,281,1.0,2.0,64,0.00,,,0.00,Wunderground v.1.15,2013-02-17 11:00:00,
2013-02-17 06:05:00,20.7,10.4,30.22,WSW,258,0.0,4.0,64,0.00,,,0.00,Wunderground v.1.15,2013-02-17 11:05:00,
2013-02-17 06:10:00,20.7,10.4,30.23,West,279,1.0,2.0,64,0.00,,,0.00,Wunderground v.1.15,2013-02-17 11:10:00,
2013-02-17 06:15:00,20.7,10.8,30.22,West,275,0.0,3.0,65,0.00,,,0.00,Wunderground v.1.15,2013-02-17 11:15:00,
2013-02-17 06:20:00,20.6,11.0,30.23,West,271,1.0,2.0,66,0.00,,,0.00,Wunderground v.1.15,2013-02-17 11:20:00,
2013-02-17 06:25:00,20.6,10.7,30.23,North,355,1.0,6.0,65,0.00,,,0.00,Wunderground v.1.15,2013-02-17 11:25:00,
2013-02-17 06:30:00,20.6,11.0,30.23,NW,311,2.0,3.0,66,0.00,,,0.00,Wunderground v.1.15,2013-02-17 11:30:00,
2013-02-17 06:35:00,20.6,11.0,30.23,West,281,1.0,4.0,66,0.00,,,0.00,Wunderground v.1.15,2013-02-17 11:35:00,
2013-02-17 06:40:00,20.7,11.1,30.23,NW,309,0.0,1.0,66,0.00,,,0.00,Wunderground v.1.15,2013-02-17 11:40:00,
2013-02-17 06:45:00,20.7,11.1,30.23,WSW,258,0.0,3.0,66,0.00,,,0.00,Wunderground v.1.15,2013-02-17 11:45:00,
2013-02-17 06:50:00,20.7,11.5,30.24,NNE,32,2.0,2.0,67,0.00,,,0.00,Wunderground v.1.15,2013-02-17 11:50:00,
2013-02-17 06:55:00,20.7,11.1,30.23,South,177,0.0,4.0,66,0.00,,,0.00,Wunderground v.1.15,2013-02-17 11:55:00,
2013-02-17 07:00:00,20.7,11.1,30.24,West,276,1.0,1.0,66,0.00,,,0.00,Wunderground v.1.15,2013-02-17 12:00:00,
2013-02-17 07:05:00,20.6,11.0,30.24,WNW,287,0.0,5.0,66,0.00,,,0.00,Wunderground v.1.15,2013-02-17 12:05:00,
2013-02-17 07:10:00,20.7,11.5,30.24,WNW,284,0.0,1.0,67,0.00,,,0.00,Wunderground v.1.15,2013-02-17 12:10:00,
2013-02-17 07:15:00,20.7,11.5,30.25,WNW,284,0.0,2.0,67,0.00,,,0.00,Wunderground v.1.15,2013-02-17 12:15:00,
2013-02-17 07:20:00,20.7,11.5,30.25,WSW,244,1.0,3.0,67,0.00,,,0.00,Wunderground v.1.15,2013-02-17 12:20:00,
2013-02-17 07:26:00,20.8,11.9,30.25,WNW,286,1.0,3.0,68,0.00,,,0.00,Wunderground v.1.15,2013-02-17 12:26:00,
2013-02-17 07:31:00,20.9,11.7,30.26,West,279,2.0,3.0,67,0.00,,,0.00,Wunderground v.1.15,2013-02-17 12:31:00,
2013-02-17 07:36:00,21.0,11.8,30.25,NW,319,0.0,5.0,67,0.00,,,0.00,Wunderground v.1.15,2013-02-17 12:36:00,
2013-02-17 07:41:00,21.1,11.8,30.26,WSW,245,1.0,1.0,67,0.00,,,0.00,Wunderground v.1.15,2013-02-17 12:41:00,
2013-02-17 07:46:00,21.1,11.8,30.26,West,269,0.0,4.0,67,0.00,,,0.00,Wunderground v.1.15,2013-02-17 12:46:00,
2013-02-17 07:51:00,21.3,12.0,30.26,NE,43,4.0,9.0,67,0.00,,,0.00,Wunderground v.1.15,2013-02-17 12:51:00,
2013-02-17 07:56:00,21.4,12.1,30.26,WSW,238,0.0,9.0,67,0.00,,,0.00,Wunderground v.1.15,2013-02-17 12:56:00,
2013-02-17 08:01:00,21.4,12.1,30.26,WSW,246,3.0,7.0,67,0.00,,,0.00,Wunderground v.1.15,2013-02-17 13:01:00,
2013-02-17 08:06:00,21.5,12.2,30.26,WNW,290,1.0,7.0,67,0.00,,,0.00,Wunderground v.1.15,2013-02-17 13:06:00,
2013-02-17 08:11:00,21.6,12.0,30.27,SW,215,2.0,4.0,66,0.00,,,0.00,Wunderground v.1.15,2013-02-17 13:11:00,
2013-02-17 08:16:00,21.7,12.4,30.27,West,275,1.0,4.0,67,0.00,,,0.00,Wunderground v.1.15,2013-02-17 13:16:00,
2013-02-17 08:21:00,21.8,12.5,30.27,SW,227,1.0,2.0,67,0.00,,,0.00,Wunderground v.1.15,2013-02-17 13:21:00,
2013-02-17 08:26:00,21.9,12.3,30.27,SW,226,0.0,5.0,66,0.00,,,0.00,Wunderground v.1.15,2013-02-17 13:26:00,
2013-02-17 08:31:00,22.0,12.4,30.28,WSW,242,2.0,4.0,66,0.00,,,0.00,Wunderground v.1.15,2013-02-17 13:31:00,
2013-02-17 08:36:00,22.2,12.6,30.28,WSW,248,2.0,8.0,66,0.00,,,0.00,Wunderground v.1.15,2013-02-17 13:36:00,
2013-02-17 08:41:00,22.3,12.7,30.29,WSW,248,3.0,10.0,66,0.00,,,0.00,Wunderground v.1.15,2013-02-17 13:41:00,
2013-02-17 08:46:00,22.5,12.5,30.29,West,270,4.0,10.0,65,0.00,,,0.00,Wunderground v.1.15,2013-02-17 13:46:00,
2013-02-17 08:51:00,22.6,12.9,30.29,WSW,244,3.0,3.0,66,0.00,,,0.00,Wunderground v.1.15,2013-02-17 13:51:00,
2013-02-17 08:56:00,22.8,12.4,30.30,NW,318,1.0,8.0,64,0.00,,,0.00,Wunderground v.1.15,2013-02-17 13:56:00,
2013-02-17 09:01:00,22.9,12.9,30.29,WNW,301,1.0,3.0,65,0.00,,,0.00,Wunderground v.1.15,2013-02-17 14:01:00,
2013-02-17 09:06:00,23.0,13.0,30.30,WSW,244,2.0,5.0,65,0.00,,,0.00,Wunderground v.1.15,2013-02-17 14:06:00,
2013-02-17 09:11:00,23.2,13.2,30.29,West,274,1.0,5.0,65,0.00,,,0.00,Wunderground v.1.15,2013-02-17 14:11:00,
2013-02-17 09:16:00,23.4,13.0,30.29,West,259,0.0,6.0,64,0.00,,,0.00,Wunderground v.1.15,2013-02-17 14:16:00,
2013-02-17 09:21:00,23.6,13.2,30.30,West,272,0.0,7.0,64,0.00,,,0.00,Wunderground v.1.15,2013-02-17 14:21:00,
2013-02-17 09:26:00,23.7,13.3,30.30,North,355,0.0,7.0,64,0.00,,,0.00,Wunderground v.1.15,2013-02-17 14:26:00,
2013-02-17 09:31:00,23.9,13.5,30.29,WSW,238,3.0,3.0,64,0.00,,,0.00,Wunderground v.1.15,2013-02-17 14:31:00,
2013-02-17 09:36:00,24.0,13.6,30.30,West,276,1.0,10.0,64,0.00,,,0.00,Wunderground v.1.15,2013-02-17 14:36:00,
2013-02-17 09:41:00,24.2,13.8,30.30,WNW,302,1.0,3.0,64,0.00,,,0.00,Wunderground v.1.15,2013-02-17 14:41:00,
2013-02-17 09:47:00,24.3,13.5,30.30,North,9,1.0,5.0,63,0.00,,,0.00,Wunderground v.1.15,2013-02-17 14:47:00,
2013-02-17 09:52:00,24.5,13.3,30.30,NW,321,4.0,4.0,62,0.00,,,0.00,Wunderground v.1.15,2013-02-17 14:52:00,
2013-02-17 09:57:00,24.7,13.5,30.30,North,5,2.0,4.0,62,0.00,,,0.00,Wunderground v.1.15,2013-02-17 14:57:00,
2013-02-17 10:02:00,24.9,13.3,30.30,West,262,3.0,4.0,61,0.00,,,0.00,Wunderground v.1.15,2013-02-17 15:02:00,
2013-02-17 10:07:00,25.0,13.4,30.30,WSW,256,6.0,8.0,61,0.00,,,0.00,Wunderground v.1.15,2013-02-17 15:07:00,
2013-02-17 10:12:00,25.0,13.4,30.30,West,273,2.0,6.0,61,0.00,,,0.00,Wunderground v.1.15,2013-02-17 15:12:00,
2013-02-17 10:17:00,25.3,14.1,30.31,WSW,245,1.0,8.0,62,0.00,,,0.00,Wunderground v.1.15,2013-02-17 15:17:00,
2013-02-17 10:22:00,25.6,13.2,30.31,WSW,238,9.0,10.0,59,0.00,,,0.00,Wunderground v.1.15,2013-02-17 15:22:00,
2013-02-17 10:27:00,25.6,13.6,30.31,NNW,332,1.0,10.0,60,0.00,,,0.00,Wunderground v.1.15,2013-02-17 15:27:00,
2013-02-17 10:32:00,25.9,13.5,30.31,West,275,2.0,5.0,59,0.00,,,0.00,Wunderground v.1.15,2013-02-17 15:32:00,
2013-02-17 10:37:00,26.1,13.7,30.31,North,9,0.0,5.0,59,0.00,,,0.00,Wunderground v.1.15,2013-02-17 15:37:00,
2013-02-17 10:42:00,26.5,13.7,30.31,WSW,238,0.0,4.0,58,0.00,,,0.00,Wunderground v.1.15,2013-02-17 15:42:00,
2013-02-17 10:47:00,26.7,13.5,30.32,WNW,302,0.0,6.0,57,0.00,,,0.00,Wunderground v.1.15,2013-02-17 15:47:00,
2013-02-17 10:52:00,26.8,14.0,30.32,West,272,1.0,5.0,58,0.00,,,0.00,Wunderground v.1.15,2013-02-17 15:52:00,
2013-02-17 10:57:00,27.0,14.6,30.33,West,275,6.0,6.0,59,0.00,,,0.00,Wunderground v.1.15,2013-02-17 15:57:00,
2013-02-17 11:02:00,27.4,14.1,30.32,WNW,293,3.0,7.0,57,0.00,,,0.00,Wunderground v.1.15,2013-02-17 16:02:00,
2013-02-17 11:07:00,27.8,14.5,30.32,NW,309,1.0,7.0,57,0.00,,,0.00,Wunderground v.1.15,2013-02-17 16:07:00,
2013-02-17 11:12:00,27.8,14.1,30.33,WNW,300,3.0,6.0,56,0.00,,,0.00,Wunderground v.1.15,2013-02-17 16:12:00,
2013-02-17 11:17:00,27.7,13.6,30.32,SW,227,2.0,7.0,55,0.00,,,0.00,Wunderground v.1.15,2013-02-17 16:17:00,
2013-02-17 11:22:00,28.0,15.1,30.32,West,265,1.0,8.0,58,0.00,,,0.00,Wunderground v.1.15,2013-02-17 16:22:00,
2013-02-17 11:27:00,28.6,14.9,30.32,WSW,241,4.0,8.0,56,0.00,,,0.00,Wunderground v.1.15,2013-02-17 16:27:00,
2013-02-17 11:32:00,28.6,14.5,30.32,WSW,248,0.0,7.0,55,0.00,,,0.00,Wunderground v.1.15,2013-02-17 16:32:00,
2013-02-17 11:37:00,28.6,14.0,30.32,West,273,3.0,12.0,54,0.00,,,0.00,Wunderground v.1.15,2013-02-17 16:37:00,
2013-02-17 11:42:00,28.7,13.7,30.32,West,277,1.0,7.0,53,0.00,,,0.00,Wunderground v.1.15,2013-02-17 16:42:00,
2013-02-17 11:47:00,28.8,13.8,30.32,NW,313,2.0,7.0,53,0.00,,,0.00,Wunderground v.1.15,2013-02-17 16:47:00,
2013-02-17 11:53:00,29.3,14.3,30.33,West,278,1.0,10.0,53,0.00,,,0.00,Wunderground v.1.15,2013-02-17 16:53:00,
2013-02-17 11:58:00,29.4,14.8,30.32,WNW,290,2.0,11.0,54,0.00,,,0.00,Wunderground v.1.15,2013-02-17 16:58:00,
2013-02-17 12:03:00,29.5,14.5,30.32,West,270,2.0,7.0,53,0.00,,,0.00,Wunderground v.1.15,2013-02-17 17:03:00,
2013-02-17 12:08:00,29.4,14.4,30.32,NE,44,4.0,7.0,53,0.00,,,0.00,Wunderground v.1.15,2013-02-17 17:08:00,
2013-02-17 12:13:00,29.5,14.5,30.32,WSW,252,4.0,5.0,53,0.00,,,0.00,Wunderground v.1.15,2013-02-17 17:13:00,
2013-02-17 12:18:00,29.7,14.6,30.32,WSW,241,3.0,6.0,53,0.00,,,0.00,Wunderground v.1.15,2013-02-17 17:18:00,
2013-02-17 12:23:00,30.2,14.2,30.32,West,265,3.0,7.0,51,0.00,,,0.00,Wunderground v.1.15,2013-02-17 17:23:00,
2013-02-17 12:28:00,30.1,14.6,30.32,NNE,13,3.0,7.0,52,0.00,,,0.00,Wunderground v.1.15,2013-02-17 17:28:00,
2013-02-17 12:33:00,30.4,14.9,30.31,WSW,258,2.0,5.0,52,0.00,,,0.00,Wunderground v.1.15,2013-02-17 17:33:00,
2013-02-17 12:38:00,30.6,15.9,30.31,West,259,2.0,5.0,54,0.00,,,0.00,Wunderground v.1.15,2013-02-17 17:38:00,
2013-02-17 12:43:00,30.9,15.3,30.31,West,268,0.0,4.0,52,0.00,,,0.00,Wunderground v.1.15,2013-02-17 17:43:00,
2013-02-17 12:48:00,31.3,15.7,30.31,NW,314,1.0,4.0,52,0.00,,,0.00,Wunderground v.1.15,2013-02-17 17:48:00,
2013-02-17 12:53:00,31.4,15.3,30.30,West,261,4.0,6.0,51,0.00,,,0.00,Wunderground v.1.15,2013-02-17 17:53:00,
2013-02-17 12:58:00,31.4,15.3,30.31,WSW,248,1.0,6.0,51,0.00,,,0.00,Wunderground v.1.15,2013-02-17 17:58:00,
2013-02-17 13:03:00,31.4,15.3,30.31,NE,39,5.0,9.0,51,0.00,,,0.00,Wunderground v.1.15,2013-02-17 18:03:00,
2013-02-17 13:08:00,31.6,15.1,30.31,North,350,0.0,9.0,50,0.00,,,0.00,Wunderground v.1.15,2013-02-17 18:08:00,
2013-02-17 13:14:00,31.6,15.5,30.31,NE,46,4.0,11.0,51,0.00,,,0.00,Wunderground v.1.15,2013-02-17 18:14:00,
2013-02-17 13:19:00,31.8,14.8,30.31,North,5,0.0,11.0,49,0.00,,,0.00,Wunderground v.1.15,2013-02-17 18:19:00,
2013-02-17 13:24:00,32.2,15.2,30.30,West,266,1.0,2.0,49,0.00,,,0.00,Wunderground v.1.15,2013-02-17 18:24:00,
2013-02-17 13:29:00,32.6,15.5,30.31,SW,232,0.0,3.0,49,0.00,,,0.00,Wunderground v.1.15,2013-02-17 18:29:00,
2013-02-17 13:34:00,32.8,14.8,30.30,WSW,244,4.0,14.0,47,0.00,,,0.00,Wunderground v.1.15,2013-02-17 18:34:00,
2013-02-17 13:39:00,32.7,14.2,30.30,WNW,282,3.0,14.0,46,0.00,,,0.00,Wunderground v.1.15,2013-02-17 18:39:00,
2013-02-17 13:44:00,32.7,14.7,30.30,North,5,2.0,11.0,47,0.00,,,0.00,Wunderground v.1.15,2013-02-17 18:44:00,
2013-02-17 13:49:00,32.8,14.8,30.30,West,279,1.0,11.0,47,0.00,,,0.00,Wunderground v.1.15,2013-02-17 18:49:00,
2013-02-17 13:54:00,33.0,15.4,30.30,NNE,21,0.0,9.0,48,0.00,,,0.00,Wunderground v.1.15,2013-02-17 18:54:00,
2013-02-17 13:59:00,32.9,14.4,30.30,NNE,18,6.0,9.0,46,0.00,,,0.00,Wunderground v.1.15,2013-02-17 18:59:00,
2013-02-17 14:04:00,32.8,14.3,30.30,NNW,336,1.0,4.0,46,0.00,,,0.00,Wunderground v.1.15,2013-02-17 19:04:00,
2013-02-17 14:09:00,32.8,14.8,30.30,West,277,2.0,13.0,47,0.00,,,0.00,Wunderground v.1.15,2013-02-17 19:09:00,
2013-02-17 14:14:00,32.8,14.8,30.30,WNW,302,0.0,4.0,47,0.00,,,0.00,Wunderground v.1.15,2013-02-17 19:14:00,
2013-02-17 14:19:00,32.9,15.3,30.30,NNW,332,1.0,4.0,48,0.00,,,0.00,Wunderground v.1.15,2013-02-17 19:19:00,
2013-02-17 14:24:00,33.2,15.1,30.30,SW,234,1.0,7.0,47,0.00,,,0.00,Wunderground v.1.15,2013-02-17 19:24:00,
2013-02-17 14:29:00,33.3,15.7,30.30,NW,318,3.0,7.0,48,0.00,,,0.00,Wunderground v.1.15,2013-02-17 19:29:00,
2013-02-17 14:34:00,33.7,15.6,30.30,SW,225,3.0,6.0,47,0.00,,,0.00,Wunderground v.1.15,2013-02-17 19:34:00,
2013-02-17 14:39:00,33.9,16.3,30.30,West,275,1.0,7.0,48,0.00,,,0.00,Wunderground v.1.15,2013-02-17 19:39:00,
2013-02-17 14:44:00,34.2,15.5,30.29,WNW,290,1.0,6.0,46,0.00,,,0.00,Wunderground v.1.15,2013-02-17 19:44:00,
2013-02-17 14:49:00,34.0,15.9,30.29,NNW,336,0.0,6.0,47,0.00,,,0.00,Wunderground v.1.15,2013-02-17 19:49:00,
2013-02-17 14:54:00,34.2,16.0,30.29,WNW,282,0.0,4.0,47,0.00,,,0.00,Wunderground v.1.15,2013-02-17 19:54:00,
2013-02-17 14:59:00,34.2,16.0,30.30,WSW,244,0.0,4.0,47,0.00,,,0.00,Wunderground v.1.15,2013-02-17 19:59:00,
2013-02-17 15:04:00,34.2,16.0,30.29,West,261,1.0,4.0,47,0.00,,,0.00,Wunderground v.1.15,2013-02-17 20:04:00,
2013-02-17 15:09:00,34.4,16.2,30.30,West,273,1.0,4.0,47,0.00,,,0.00,Wunderground v.1.15,2013-02-17 20:09:00,
2013-02-17 15:14:00,34.5,15.8,30.30,NW,320,4.0,4.0,46,0.00,,,0.00,Wunderground v.1.15,2013-02-17 20:14:00,
2013-02-17 15:19:00,34.2,15.5,30.30,West,267,2.0,2.0,46,0.00,,,0.00,Wunderground v.1.15,2013-02-17 20:19:00,
2013-02-17 15:24:00,34.2,16.0,30.30,WNW,302,2.0,4.0,47,0.00,,,0.00,Wunderground v.1.15,2013-02-17 20:24:00,
2013-02-17 15:29:00,34.3,15.6,30.31,SW,236,5.0,5.0,46,0.00,,,0.00,Wunderground v.1.15,2013-02-17 20:29:00,
2013-02-17 15:34:00,34.4,15.7,30.31,West,279,1.0,5.0,46,0.00,,,0.00,Wunderground v.1.15,2013-02-17 20:34:00,
2013-02-17 15:39:00,34.6,15.4,30.31,West,261,4.0,4.0,45,0.00,,,0.00,Wunderground v.1.15,2013-02-17 20:39:00,
2013-02-17 15:45:00,34.7,15.0,30.31,SW,235,3.0,5.0,44,0.00,,,0.00,Wunderground v.1.15,2013-02-17 20:45:00,
2013-02-17 15:50:00,34.8,16.1,30.31,North,360,4.0,5.0,46,0.00,,,0.00,Wunderground v.1.15,2013-02-17 20:50:00,
2013-02-17 15:55:00,34.9,16.2,30.31,NW,304,1.0,5.0,46,0.00,,,0.00,Wunderground v.1.15,2013-02-17 20:55:00,
2013-02-17 16:00:00,34.9,16.2,30.32,NW,304,1.0,1.0,46,0.00,,,0.00,Wunderground v.1.15,2013-02-17 21:00:00,
2013-02-17 16:05:00,35.1,15.3,30.31,WSW,242,1.0,5.0,44,0.00,,,0.00,Wunderground v.1.15,2013-02-17 21:05:00,
2013-02-17 16:10:00,35.3,15.5,30.31,WSW,252,3.0,3.0,44,0.00,,,0.00,Wunderground v.1.15,2013-02-17 21:10:00,
2013-02-17 16:15:00,35.2,15.4,30.31,WSW,249,2.0,6.0,44,0.00,,,0.00,Wunderground v.1.15,2013-02-17 21:15:00,
2013-02-17 16:20:00,35.1,15.9,30.31,West,261,0.0,2.0,45,0.00,,,0.00,Wunderground v.1.15,2013-02-17 21:20:00,
2013-02-17 16:25:00,35.1,15.3,30.31,West,263,1.0,5.0,44,0.00,,,0.00,Wunderground v.1.15,2013-02-17 21:25:00,
2013-02-17 16:30:00,35.1,15.3,30.31,WSW,238,4.0,4.0,44,0.00,,,0.00,Wunderground v.1.15,2013-02-17 21:30:00,
2013-02-17 16:35:00,34.9,15.2,30.32,WSW,251,2.0,4.0,44,0.00,,,0.00,Wunderground v.1.15,2013-02-17 21:35:00,
2013-02-17 16:40:00,34.6,14.9,30.32,WSW,247,0.0,2.0,44,0.00,,,0.00,Wunderground v.1.15,2013-02-17 21:40:00,
2013-02-17 16:45:00,34.5,15.3,30.32,West,259,2.0,4.0,45,0.00,,,0.00,Wunderground v.1.15,2013-02-17 21:45:00,
2013-02-17 16:50:00,34.4,15.2,30.32,WSW,252,2.0,4.0,45,0.00,,,0.00,Wunderground v.1.15,2013-02-17 21:50:00,
2013-02-17 16:55:00,34.2,14.5,30.32,WSW,251,3.0,4.0,44,0.00,,,0.00,Wunderground v.1.15,2013-02-17 21:55:00,
2013-02-17 17:00:00,34.2,15.0,30.33,WSW,255,1.0,2.0,45,0.00,,,0.00,Wunderground v.1.15,2013-02-17 22:00:00,
2013-02-17 17:05:00,34.1,14.9,30.33,SSW,209,2.0,5.0,45,0.00,,,0.00,Wunderground v.1.15,2013-02-17 22:05:00,
2013-02-17 17:10:00,33.9,14.8,30.33,West,262,2.0,5.0,45,0.00,,,0.00,Wunderground v.1.15,2013-02-17 22:10:00,
2013-02-17 17:15:00,33.9,14.8,30.33,WSW,244,1.0,5.0,45,0.00,,,0.00,Wunderground v.1.15,2013-02-17 22:15:00,
2013-02-17 17:20:00,33.8,15.2,30.34,WSW,240,1.0,1.0,46,0.00,,,0.00,Wunderground v.1.15,2013-02-17 22:20:00,
2013-02-17 17:25:00,33.8,15.2,30.34,SSW,194,2.0,3.0,46,0.00,,,0.00,Wunderground v.1.15,2013-02-17 22:25:00,
2013-02-17 17:30:00,33.8,15.2,30.34,WSW,247,0.0,1.0,46,0.00,,,0.00,Wunderground v.1.15,2013-02-17 22:30:00,
2013-02-17 17:35:00,33.7,15.6,30.34,SSW,211,0.0,2.0,47,0.00,,,0.00,Wunderground v.1.15,2013-02-17 22:35:00,
2013-02-17 17:40:00,33.6,15.0,30.34,South,182,0.0,1.0,46,0.00,,,0.00,Wunderground v.1.15,2013-02-17 22:40:00,
2013-02-17 17:45:00,33.5,14.9,30.34,SW,229,3.0,3.0,46,0.00,,,0.00,Wunderground v.1.15,2013-02-17 22:45:00,
2013-02-17 17:50:00,33.3,14.7,30.35,WSW,238,0.0,1.0,46,0.00,,,0.00,Wunderground v.1.15,2013-02-17 22:50:00,
2013-02-17 17:55:00,33.2,15.1,30.35,WSW,238,0.0,1.0,47,0.00,,,0.00,Wunderground v.1.15,2013-02-17 22:55:00,
2013-02-17 18:01:00,33.1,15.0,30.35,NE,43,0.0,1.0,47,0.00,,,0.00,Wunderground v.1.15,2013-02-17 23:01:00,
2013-02-17 18:06:00,32.8,15.2,30.35,NE,43,0.0,1.0,48,0.00,,,0.00,Wunderground v.1.15,2013-02-17 23:06:00,
2013-02-17 18:11:00,32.6,15.1,30.35,NE,43,0.0,0.0,48,0.00,,,0.00,Wunderground v.1.15,2013-02-17 23:11:00,
2013-02-17 18:16:00,32.3,15.7,30.35,NE,43,0.0,1.0,50,0.00,,,0.00,Wunderground v.1.15,2013-02-17 23:16:00,
2013-02-17 18:21:00,31.9,14.9,30.36,SSW,196,0.0,1.0,49,0.00,,,0.00,Wunderground v.1.15,2013-02-17 23:21:00,
2013-02-17 18:26:00,31.7,14.7,30.36,SSW,196,0.0,1.0,49,0.00,,,0.00,Wunderground v.1.15,2013-02-17 23:26:00,
2013-02-17 18:31:00,31.6,14.6,30.36,SW,217,1.0,2.0,49,0.00,,,0.00,Wunderground v.1.15,2013-02-17 23:31:00,
2013-02-17 18:36:00,31.5,15.0,30.37,SW,217,1.0,2.0,50,0.00,,,0.00,Wunderground v.1.15,2013-02-17 23:36:00,
2013-02-17 18:41:00,31.4,14.9,30.37,WSW,241,3.0,3.0,50,0.00,,,0.00,Wunderground v.1.15,2013-02-17 23:41:00,
2013-02-17 18:46:00,31.4,14.9,30.37,WSW,240,1.0,3.0,50,0.00,,,0.00,Wunderground v.1.15,2013-02-17 23:46:00,
2013-02-17 18:51:00,31.4,14.9,30.37,SW,226,1.0,1.0,50,0.00,,,0.00,Wunderground v.1.15,2013-02-17 23:51:00,
2013-02-17 18:56:00,31.3,14.8,30.37,SW,227,1.0,1.0,50,0.00,,,0.00,Wunderground v.1.15,2013-02-17 23:56:00,
2013-02-17 19:01:00,31.1,14.6,30.37,SW,227,0.0,1.0,50,0.00,,,0.00,Wunderground v.1.15,2013-02-18 00:01:00,
2013-02-17 19:06:00,31.0,14.5,30.37,West,259,0.0,3.0,50,0.00,,,0.00,Wunderground v.1.15,2013-02-18 00:06:00,
2013-02-17 19:11:00,31.0,15.0,30.37,West,259,0.0,1.0,51,0.00,,,0.00,Wunderground v.1.15,2013-02-18 00:11:00,
2013-02-17 19:16:00,30.9,14.9,30.37,West,259,0.0,1.0,51,0.00,,,0.00,Wunderground v.1.15,2013-02-18 00:16:00,
2013-02-17 19:21:00,30.9,14.9,30.38,West,259,0.0,1.0,51,0.00,,,0.00,Wunderground v.1.15,2013-02-18 00:21:00,
2013-02-17 19:26:00,30.7,15.1,30.38,West,259,0.0,2.0,52,0.00,,,0.00,Wunderground v.1.15,2013-02-18 00:26:00,
2013-02-17 19:31:00,30.6,15.0,30.38,West,259,0.0,1.0,52,0.00,,,0.00,Wunderground v.1.15,2013-02-18 00:31:00,
2013-02-17 19:36:00,30.5,14.9,30.38,West,259,0.0,1.0,52,0.00,,,0.00,Wunderground v.1.15,2013-02-18 00:36:00,
2013-02-17 19:41:00,30.4,14.9,30.39,West,259,0.0,1.0,52,0.00,,,0.00,Wunderground v.1.15,2013-02-18 00:41:00,
2013-02-17 19:46:00,30.3,14.3,30.38,West,259,0.0,1.0,51,0.00,,,0.00,Wunderground v.1.15,2013-02-18 00:46:00,
2013-02-17 19:51:00,30.3,14.8,30.38,West,259,0.0,0.0,52,0.00,,,0.00,Wunderground v.1.15,2013-02-18 00:51:00,
2013-02-17 19:56:00,30.1,14.6,30.39,West,259,0.0,1.0,52,0.00,,,0.00,Wunderground v.1.15,2013-02-18 00:56:00,
2013-02-17 20:01:00,30.1,14.6,30.38,West,259,0.0,0.0,52,0.00,,,0.00,Wunderground v.1.15,2013-02-18 01:01:00,
2013-02-17 20:06:00,30.0,14.5,30.38,West,259,0.0,1.0,52,0.00,,,0.00,Wunderground v.1.15,2013-02-18 01:06:00,
2013-02-17 20:11:00,29.9,14.4,30.38,West,259,0.0,0.0,52,0.00,,,0.00,Wunderground v.1.15,2013-02-18 01:11:00,
2013-02-17 20:16:00,29.8,14.7,30.39,West,259,0.0,0.0,53,0.00,,,0.00,Wunderground v.1.15,2013-02-18 01:16:00,
2013-02-17 20:21:00,29.7,14.6,30.39,West,259,0.0,0.0,53,0.00,,,0.00,Wunderground v.1.15,2013-02-18 01:21:00,
2013-02-17 20:26:00,29.5,14.5,30.39,West,259,0.0,0.0,53,0.00,,,0.00,Wunderground v.1.15,2013-02-18 01:26:00,
2013-02-17 20:31:00,29.2,14.6,30.39,West,259,0.0,0.0,54,0.00,,,0.00,Wunderground v.1.15,2013-02-18 01:31:00,
2013-02-17 20:36:00,29.0,14.4,30.39,West,259,0.0,0.0,54,0.00,,,0.00,Wunderground v.1.15,2013-02-18 01:36:00,
2013-02-17 20:41:00,28.9,14.3,30.40,West,259,0.0,0.0,54,0.00,,,0.00,Wunderground v.1.15,2013-02-18 01:41:00,
2013-02-17 20:46:00,28.7,14.1,30.40,West,259,0.0,1.0,54,0.00,,,0.00,Wunderground v.1.15,2013-02-18 01:46:00,
2013-02-17 20:52:00,28.6,14.5,30.39,WSW,258,0.0,0.0,55,0.00,,,0.00,Wunderground v.1.15,2013-02-18 01:52:00,
2013-02-17 20:56:00,28.4,14.3,30.40,West,259,0.0,0.0,55,0.00,,,0.00,Wunderground v.1.15,2013-02-18 01:56:00,
2013-02-17 21:02:00,28.2,14.5,30.40,West,259,0.0,0.0,56,0.00,,,0.00,Wunderground v.1.15,2013-02-18 02:02:00,
2013-02-17 21:07:00,28.0,14.3,30.40,West,259,0.0,0.0,56,0.00,,,0.00,Wunderground v.1.15,2013-02-18 02:07:00,
2013-02-17 21:12:00,28.0,14.3,30.40,West,259,0.0,0.0,56,0.00,,,0.00,Wunderground v.1.15,2013-02-18 02:12:00,
2013-02-17 21:17:00,28.0,14.7,30.40,WSW,258,0.0,0.0,57,0.00,,,0.00,Wunderground v.1.15,2013-02-18 02:17:00,
2013-02-17 21:22:00,27.8,14.5,30.40,West,259,0.0,0.0,57,0.00,,,0.00,Wunderground v.1.15,2013-02-18 02:22:00,
2013-02-17 21:27:00,27.6,15.1,30.40,West,259,0.0,0.0,59,0.00,,,0.00,Wunderground v.1.15,2013-02-18 02:27:00,
2013-02-17 21:32:00,27.4,15.3,30.40,West,259,0.0,0.0,60,0.00,,,0.00,Wunderground v.1.15,2013-02-18 02:32:00,
2013-02-17 21:37:00,27.2,16.6,30.40,West,259,0.0,0.0,64,0.00,,,0.00,Wunderground v.1.15,2013-02-18 02:37:00,
2013-02-17 21:42:00,27.0,15.7,30.41,WSW,258,0.0,0.0,62,0.00,,,0.00,Wunderground v.1.15,2013-02-18 02:42:00,
2013-02-17 21:47:00,26.7,15.8,30.41,West,259,0.0,0.0,63,0.00,,,0.00,Wunderground v.1.15,2013-02-18 02:47:00,
2013-02-17 21:52:00,26.5,15.2,30.41,WSW,258,0.0,0.0,62,0.00,,,0.00,Wunderground v.1.15,2013-02-18 02:52:00,
2013-02-17 21:57:00,26.2,15.7,30.41,WSW,258,0.0,0.0,64,0.00,,,0.00,Wunderground v.1.15,2013-02-18 02:57:00,
2013-02-17 22:02:00,26.0,15.5,30.41,West,259,0.0,0.0,64,0.00,,,0.00,Wunderground v.1.15,2013-02-18 03:02:00,
2013-02-17 22:07:00,25.9,15.4,30.41,West,259,0.0,0.0,64,0.00,,,0.00,Wunderground v.1.15,2013-02-18 03:07:00,
2013-02-17 22:12:00,25.7,15.2,30.41,West,259,0.0,0.0,64,0.00,,,0.00,Wunderground v.1.15,2013-02-18 03:12:00,
2013-02-17 22:17:00,25.5,15.7,30.41,West,259,0.0,0.0,66,0.00,,,0.00,Wunderground v.1.15,2013-02-18 03:17:00,
2013-02-17 22:22:00,25.3,15.2,30.41,West,259,0.0,0.0,65,0.00,,,0.00,Wunderground v.1.15,2013-02-18 03:22:00,
2013-02-17 22:27:00,25.2,15.1,30.41,West,259,0.0,0.0,65,0.00,,,0.00,Wunderground v.1.15,2013-02-18 03:27:00,
2013-02-17 22:32:00,25.0,15.2,30.42,West,259,0.0,0.0,66,0.00,,,0.00,Wunderground v.1.15,2013-02-18 03:32:00,
2013-02-17 22:37:00,24.9,15.1,30.42,West,259,0.0,0.0,66,0.00,,,0.00,Wunderground v.1.15,2013-02-18 03:37:00,
2013-02-17 22:42:00,24.9,15.8,30.42,West,259,0.0,0.0,68,0.00,,,0.00,Wunderground v.1.15,2013-02-18 03:42:00,
2013-02-17 22:47:00,24.7,15.6,30.42,WSW,258,0.0,0.0,68,0.00,,,0.00,Wunderground v.1.15,2013-02-18 03:47:00,
2013-02-17 22:52:00,24.6,15.2,30.42,West,259,0.0,0.0,67,0.00,,,0.00,Wunderground v.1.15,2013-02-18 03:52:00,
2013-02-17 22:57:00,24.5,15.1,30.41,West,259,0.0,0.0,67,0.00,,,0.00,Wunderground v.1.15,2013-02-18 03:57:00,
2013-02-17 23:02:00,24.4,15.7,30.41,West,259,0.0,0.0,69,0.00,,,0.00,Wunderground v.1.15,2013-02-18 04:02:00,
2013-02-17 23:07:00,24.3,15.9,30.41,West,259,0.0,1.0,70,0.00,,,0.00,Wunderground v.1.15,2013-02-18 04:07:00,
2013-02-17 23:12:00,24.2,15.8,30.41,WSW,258,0.0,0.0,70,0.00,,,0.00,Wunderground v.1.15,2013-02-18 04:12:00,
2013-02-17 23:17:00,24.1,15.7,30.41,West,259,0.0,0.0,70,0.00,,,0.00,Wunderground v.1.15,2013-02-18 04:17:00,
2013-02-17 23:22:00,24.1,16.1,30.42,West,259,0.0,0.0,71,0.00,,,0.00,Wunderground v.1.15,2013-02-18 04:22:00,
2013-02-17 23:27:00,24.0,16.6,30.42,WSW,258,0.0,0.0,73,0.00,,,0.00,Wunderground v.1.15,2013-02-18 04:27:00,
2013-02-17 23:32:00,23.8,16.4,30.42,WSW,258,0.0,0.0,73,0.00,,,0.00,Wunderground v.1.15,2013-02-18 04:32:00,
2013-02-17 23:37:00,23.6,16.5,30.42,West,259,0.0,0.0,74,0.00,,,0.00,Wunderground v.1.15,2013-02-18 04:37:00,
2013-02-17 23:42:00,23.4,16.0,30.42,West,259,0.0,1.0,73,0.00,,,0.00,Wunderground v.1.15,2013-02-18 04:42:00,
2013-02-17 23:47:00,23.2,15.5,30.42,West,259,0.0,1.0,72,0.00,,,0.00,Wunderground v.1.15,2013-02-18 04:47:00,
2013-02-17 23:52:00,23.1,15.4,30.42,West,259,0.0,0.0,72,0.00,,,0.00,Wunderground v.1.15,2013-02-18 04:52:00,
2013-02-17 23:57:00,23.1,15.7,30.42,West,259,0.0,0.0,73,0.00,,,0.00,Wunderground v.1.15,2013-02-18 04:57:00,